TimeEDT,TemperatureF,Dew PointF,Humidity,Sea Level PressureIn,VisibilityMPH,Wind Direction,Wind SpeedMPH,Gust SpeedMPH,PrecipitationIn,Events,Conditions,WindDirDegrees,DateUTC
12:54 AM,61.0,60.1,97,30.19,8.0,Calm,Calm,-,N/A,,Clear,0,2012-09-27 04:54:00
1:54 AM,57.9,57.9,100,30.19,6.0,Calm,Calm,-,N/A,,Clear,0,2012-09-27 05:54:00
2:54 AM,57.9,57.0,97,30.17,6.0,Calm,Calm,-,N/A,,Clear,0,2012-09-27 06:54:00
3:25 AM,57.2,57.2,100,30.17,8.0,Calm,Calm,-,N/A,,Scattered Clouds,0,2012-09-27 07:25:00
3:33 AM,57.2,57.2,100,30.17,9.0,Calm,Calm,-,N/A,,Mostly Cloudy,0,2012-09-27 07:33:00
3:54 AM,57.0,55.9,96,30.17,8.0,Calm,Calm,-,N/A,,Mostly Cloudy,0,2012-09-27 07:54:00
4:07 AM,57.2,55.4,94,30.16,4.0,Calm,Calm,-,N/A,,Scattered Clouds,0,2012-09-27 08:07:00
4:21 AM,57.2,57.2,100,30.16,2.0,Calm,Calm,-,N/A,,Scattered Clouds,0,2012-09-27 08:21:00
4:27 AM,57.2,57.2,100,30.16,1.8,Calm,Calm,-,N/A,,Mostly Cloudy,0,2012-09-27 08:27:00
4:33 AM,55.4,55.4,100,30.16,1.2,Calm,Calm,-,N/A,,Scattered Clouds,0,2012-09-27 08:33:00
4:39 AM,57.2,55.4,94,30.16,2.0,Calm,Calm,-,N/A,,Scattered Clouds,0,2012-09-27 08:39:00
4:47 AM,55.4,55.4,100,30.16,7.0,Calm,Calm,-,N/A,,Scattered Clouds,0,2012-09-27 08:47:00
4:54 AM,57.0,55.9,96,30.16,5.0,Calm,Calm,-,N/A,,Partly Cloudy,0,2012-09-27 08:54:00
4:59 AM,55.4,55.4,100,30.16,1.8,Calm,Calm,-,N/A,,Clear,0,2012-09-27 08:59:00
5:01 AM,55.4,55.4,100,30.16,1.5,Calm,Calm,-,N/A,,Partly Cloudy,0,2012-09-27 09:01:00
5:08 AM,55.4,55.4,100,30.16,2.5,Calm,Calm,-,N/A,,Scattered Clouds,0,2012-09-27 09:08:00
5:16 AM,55.4,55.4,100,30.17,3.0,Calm,Calm,-,N/A,,Partly Cloudy,0,2012-09-27 09:16:00
5:28 AM,55.4,55.4,100,30.17,1.8,Calm,Calm,-,N/A,,Scattered Clouds,0,2012-09-27 09:28:00
5:30 AM,55.4,55.4,100,30.17,0.8,Calm,Calm,-,N/A,,Mist,0,2012-09-27 09:30:00
5:54 AM,55.9,55.0,97,30.17,0.2,Calm,Calm,-,N/A,Fog,Fog,0,2012-09-27 09:54:00
6:11 AM,55.4,55.4,100,30.18,1.2,Calm,Calm,-,N/A,,Scattered Clouds,0,2012-09-27 10:11:00
6:14 AM,55.4,55.4,100,30.18,2.5,Calm,Calm,-,N/A,,Partly Cloudy,0,2012-09-27 10:14:00
6:21 AM,53.6,53.6,100,30.18,4.0,Calm,Calm,-,N/A,,Partly Cloudy,0,2012-09-27 10:21:00
6:36 AM,53.6,53.6,100,30.18,1.2,Calm,Calm,-,N/A,,Mostly Cloudy,0,2012-09-27 10:36:00
6:43 AM,55.4,55.4,100,30.18,0.5,Calm,Calm,-,N/A,Fog,Fog,0,2012-09-27 10:43:00
6:54 AM,55.0,55.0,100,30.18,0.2,Calm,Calm,-,N/A,Fog,Fog,0,2012-09-27 10:54:00
7:54 AM,55.9,55.9,100,30.19,0.2,Calm,Calm,-,N/A,Fog,Fog,0,2012-09-27 11:54:00
8:54 AM,61.0,61.0,100,30.20,1.5,Calm,Calm,-,N/A,,Mostly Cloudy,0,2012-09-27 12:54:00
8:56 AM,62.6,62.6,100,30.20,2.0,Calm,Calm,-,N/A,,Mostly Cloudy,0,2012-09-27 12:56:00
9:01 AM,62.6,62.6,100,30.20,4.0,Calm,Calm,-,N/A,,Scattered Clouds,0,2012-09-27 13:01:00
9:54 AM,72.0,66.9,84,30.22,10.0,West,5.8,-,N/A,,Clear,280,2012-09-27 13:54:00
10:54 AM,78.1,66.9,68,30.21,10.0,NW,5.8,-,N/A,,Partly Cloudy,310,2012-09-27 14:54:00
11:54 AM,80.1,64.9,60,30.20,10.0,Variable,4.6,-,N/A,,Partly Cloudy,0,2012-09-27 15:54:00
12:54 PM,82.9,60.1,46,30.17,10.0,Calm,Calm,-,N/A,,Clear,0,2012-09-27 16:54:00
1:54 PM,84.0,59.0,43,30.14,10.0,Variable,3.5,-,N/A,,Clear,0,2012-09-27 17:54:00
2:54 PM,84.9,59.0,41,30.11,10.0,West,6.9,-,N/A,,Clear,270,2012-09-27 18:54:00
3:54 PM,84.9,59.0,41,30.09,10.0,Variable,6.9,-,N/A,,Clear,0,2012-09-27 19:54:00
4:54 PM,84.9,59.0,41,30.09,10.0,South,3.5,-,N/A,,Clear,190,2012-09-27 20:54:00
5:54 PM,82.9,60.1,46,30.08,10.0,SSE,4.6,-,N/A,,Clear,150,2012-09-27 21:54:00
6:54 PM,75.9,64.9,69,30.09,10.0,Calm,Calm,-,N/A,,Clear,0,2012-09-27 22:54:00
7:54 PM,71.1,66.0,84,30.10,6.0,Calm,Calm,-,N/A,,Haze,0,2012-09-27 23:54:00
8:54 PM,71.1,64.9,81,30.12,10.0,SSE,3.5,-,N/A,,Mostly Cloudy,150,2012-09-28 00:54:00
9:54 PM,70.0,64.0,81,30.12,10.0,Calm,Calm,-,N/A,,Clear,0,2012-09-28 01:54:00
10:54 PM,68.0,64.0,87,30.12,10.0,Calm,Calm,-,N/A,,Clear,0,2012-09-28 02:54:00
11:54 PM,64.9,64.0,97,30.12,10.0,Calm,Calm,-,N/A,,Clear,0,2012-09-28 03:54:00